Location: Chrome
(40.5765°N, 74.2163°W)
Time: 21:18:18
(UTC+00:00)

Lacrosse 5 rocket - Pass Details

Date: 06 December 2019
Orbit: 465 x 633 km, 57.0° (Epoch: 22 January)

Event Time Altitude Azimuth Distance (km) Brightness Sun altitude
Rises 23:43:22 0° 255° (WSW) 2,798 6.3 -24.7°
Reaches altitude 10° 23:45:58 10° 269° (W) 1,870 5.1 -25.1°
Maximum altitude 23:49:31 25° 326° (NW) 1,125 3.1 -25.8°
Enters shadow 23:49:49 25° 333° (NNW) 1,129 3.0 -25.9°
